TimeCST,TemperatureF,Dew PointF,Humidity,Sea Level PressureIn,VisibilityMPH,Wind Direction,Wind SpeedMPH,Gust SpeedMPH,PrecipitationIn,Events,Conditions,WindDirDegrees,DateUTC
12:52 AM,30.9,21.0,67,29.89,-9999.0,WSW,13.8,-,N/A,,Unknown,250,2013-01-07 06:52:00
1:52 AM,30.0,19.9,66,29.90,-9999.0,NW,5.8,-,N/A,,Unknown,310,2013-01-07 07:52:00
2:52 AM,26.1,17.1,69,29.91,-9999.0,West,3.5,-,N/A,,Unknown,270,2013-01-07 08:52:00
3:52 AM,26.1,17.1,69,29.93,-9999.0,WNW,5.8,-,N/A,,Unknown,290,2013-01-07 09:52:00
4:52 AM,21.9,15.1,75,29.94,-9999.0,WNW,5.8,-,N/A,,Unknown,300,2013-01-07 10:52:00
5:52 AM,24.1,17.1,75,29.95,-9999.0,North,-9999.0,-,N/A,,Unknown,0,2013-01-07 11:52:00
6:52 AM,23.0,16.0,74,29.97,-9999.0,West,6.9,-,N/A,,Unknown,270,2013-01-07 12:52:00
7:52 AM,23.0,16.0,74,30.01,-9999.0,West,10.4,-,N/A,,Unknown,280,2013-01-07 13:52:00
8:52 AM,21.9,15.1,75,30.03,-9999.0,West,11.5,-,N/A,,Unknown,260,2013-01-07 14:52:00
9:52 AM,25.0,17.1,72,30.04,-9999.0,West,9.2,-,N/A,,Unknown,270,2013-01-07 15:52:00
10:52 AM,28.0,18.0,66,30.04,-9999.0,WSW,5.8,-,N/A,,Unknown,250,2013-01-07 16:52:00
11:52 AM,32.0,19.9,61,30.02,-9999.0,WNW,8.1,-,N/A,,Unknown,290,2013-01-07 17:52:00
12:52 PM,33.1,21.9,64,30.01,-9999.0,West,8.1,-,N/A,,Unknown,270,2013-01-07 18:52:00
1:52 PM,35.1,23.0,61,29.99,-9999.0,Calm,Calm,-,N/A,,Unknown,0,2013-01-07 19:52:00
2:52 PM,35.1,24.1,64,29.98,-9999.0,SSW,4.6,-,N/A,,Unknown,210,2013-01-07 20:52:00
3:52 PM,37.9,24.1,57,29.98,-9999.0,Calm,Calm,-,N/A,,Unknown,0,2013-01-07 21:52:00
4:52 PM,34.0,24.1,67,29.99,-9999.0,Calm,Calm,-,N/A,,Unknown,0,2013-01-07 22:52:00
5:52 PM,28.9,21.0,72,29.99,-9999.0,East,6.9,-,N/A,,Unknown,100,2013-01-07 23:52:00
6:52 PM,28.0,21.0,75,29.99,-9999.0,ESE,8.1,76.0,N/A,,Squalls,110,2013-01-08 00:52:00
7:52 PM,27.0,19.9,75,29.98,-9999.0,East,6.9,-,N/A,,Unknown,100,2013-01-08 01:52:00
8:52 PM,21.9,18.0,85,29.98,-9999.0,ESE,6.9,-,N/A,,Unknown,120,2013-01-08 02:52:00
9:52 PM,23.0,18.0,81,29.97,-9999.0,SE,6.9,-,N/A,,Unknown,140,2013-01-08 03:52:00
10:52 PM,21.9,18.0,85,29.96,-9999.0,ESE,5.8,-,N/A,,Unknown,120,2013-01-08 04:52:00
11:52 PM,21.9,17.1,82,29.94,-9999.0,SE,5.8,-,N/A,,Unknown,130,2013-01-08 05:52:00